Atka, AK

5:12 PM HDT on April 28, 2017 (GMT -0900)
Atka

Weather History for PAAK - October, 2012

Change the Weather History Date:

Sunday, October 7, 2012

  Actual Average (PADK) Record (PADK)
Temperature  
Mean Temperature 48 °F -  
Max Temperature 53 °F 49 °F 58 °F (1973)
Min Temperature 44 °F 40 °F 32 °F (1961)
Degree Days  
Heating Degree Days 16    
Moisture  
Dew Point 43 °F    
Average Humidity 81    
Maximum Humidity 93    
Minimum Humidity 71    
Precipitation  
Precipitation 0.00 in - - ()
Sea Level Pressure  
Sea Level Pressure 29.56 in    
Wind  
Wind Speed 20 mph (ENE)    
Max Wind Speed 33 mph    
Max Gust Speed 41 mph    
Visibility 9 miles    
Events      
Averages and records for this station are not official NWS values.
T = Trace of Precipitation, MM = Missing Value Source: NWS Daily Summary

Daily Weather History Graph

Daily Weather History Graph

Search for Another Location

Airport or City:

Trip Planner

Search our weather history database for the weather conditions in past years. The results will help you decide how hot, cold, wet, or windy it might be!

Date:

Astronomy

Oct. 07, 2012 Rise Set
Actual Time 8:49 AM HDT 7:58 PM HDT
Civil Twilight 8:15 AM HDT 8:32 PM HDT
Nautical Twilight 7:36 AM HDT 9:11 PM HDT
Astronomical Twilight 6:56 AM HDT 9:51 PM HDT
Moon No Moon Rise 4:06 PM HDT (10/7)
Length of Visible Light 12h 16m
Length of Day
11h 09m
Waning Gibbous, 54% of the Moon is Illuminated
Oct 7
Waning Gibbous
Oct 7
Last Quarter
Oct 15
New
Oct 21
First Quarter
Oct 29
Full

Hourly Weather History & Observations

Time (HDT) Temp. Windchill Dew Point Humidity Pressure Visibility Wind Dir Wind Speed Gust Speed Precip Events Conditions
12:16 AM 44.6 °F 34.9 °F 41.0 °F 87% 29.48 in 5.0 mi ENE 28.8 mph 38.0 mph N/A   Mostly Cloudy
12:36 AM 44.6 °F 34.2 °F 41.0 °F 87% 29.48 in 5.0 mi ENE 33.4 mph 39.1 mph N/A   Mostly Cloudy
12:56 AM 44.6 °F 34.7 °F 41.0 °F 87% 29.49 in 5.0 mi ENE 29.9 mph 35.7 mph N/A   Mostly Cloudy
1:16 AM 44.6 °F 35.3 °F 41.0 °F 87% 29.49 in 7.0 mi ENE 26.5 mph 38.0 mph N/A   Overcast
1:36 AM 46.4 °F 37.5 °F 41.0 °F 81% 29.49 in 5.0 mi ENE 27.6 mph 36.8 mph N/A   Overcast
1:56 AM 46.4 °F 37.0 °F 41.0 °F 81% 29.50 in 6.0 mi ENE 31.1 mph 41.4 mph N/A   Mostly Cloudy
2:16 AM 46.4 °F 37.7 °F 41.0 °F 81% 29.51 in 5.0 mi ENE 26.5 mph 39.1 mph N/A   Overcast
2:36 AM 46.4 °F 38.3 °F 41.0 °F 81% 29.50 in 4.0 mi ENE 23.0 mph 39.1 mph N/A   Overcast
2:56 AM 46.4 °F 38.5 °F 41.0 °F 81% 29.51 in 5.0 mi ENE 21.9 mph 40.3 mph N/A   Overcast
3:16 AM 46.4 °F 37.0 °F 42.8 °F 87% 29.51 in 5.0 mi ENE 31.1 mph 36.8 mph N/A   Overcast
3:36 AM 46.4 °F 37.7 °F 42.8 °F 87% 29.51 in 3.0 mi ENE 26.5 mph 35.7 mph N/A   Overcast
3:56 AM 46.4 °F 37.9 °F 42.8 °F 87% 29.51 in 3.0 mi ENE 25.3 mph 36.8 mph N/A   Overcast
4:16 AM 46.4 °F 37.9 °F 42.8 °F 87% 29.51 in 4.0 mi ENE 25.3 mph 39.1 mph N/A   Overcast
4:36 AM 46.4 °F 38.5 °F 42.8 °F 87% 29.51 in 5.0 mi ENE 21.9 mph 34.5 mph N/A   Overcast
4:56 AM 46.4 °F 38.7 °F 42.8 °F 87% 29.51 in 5.0 mi East 20.7 mph 32.2 mph N/A   Overcast
5:16 AM 46.4 °F 38.7 °F 42.8 °F 87% 29.51 in 5.0 mi ENE 20.7 mph 31.1 mph N/A   Overcast
5:36 AM 46.4 °F 38.7 °F 42.8 °F 87% 29.51 in 6.0 mi ENE 20.7 mph 33.4 mph N/A   Overcast
5:56 AM 48.2 °F - 42.8 °F 82% 29.50 in 8.0 mi NE 15.0 mph 23.0 mph N/A   Overcast
6:16 AM 48.2 °F - 42.8 °F 82% 29.50 in 8.0 mi ENE 16.1 mph 32.2 mph N/A   Overcast
6:36 AM 48.2 °F - 42.8 °F 82% 29.50 in 10.0 mi NE 11.5 mph 20.7 mph N/A   Overcast
6:56 AM 48.2 °F - 42.8 °F 82% 29.51 in 10.0 mi NE 15.0 mph 20.7 mph N/A   Overcast
7:16 AM 48.2 °F - 42.8 °F 82% 29.52 in 8.0 mi NE 12.7 mph 27.6 mph N/A   Overcast
7:36 AM 48.2 °F - 42.8 °F 82% 29.51 in 7.0 mi NNE 19.6 mph 27.6 mph N/A   Overcast
7:56 AM 48.2 °F - 42.8 °F 82% 29.52 in 6.0 mi NNE 12.7 mph 24.2 mph N/A   Overcast
8:16 AM 48.2 °F - 42.8 °F 82% 29.52 in 10.0 mi NNE 13.8 mph 19.6 mph N/A   Overcast
8:36 AM 48.2 °F - 42.8 °F 82% 29.53 in 10.0 mi NE 16.1 mph 31.1 mph N/A   Overcast
8:56 AM 48.2 °F - 41.0 °F 76% 29.53 in 10.0 mi NE 15.0 mph 27.6 mph N/A   Overcast
9:16 AM 46.4 °F 40.1 °F 41.0 °F 81% 29.54 in 10.0 mi NNE 15.0 mph 27.6 mph N/A   Overcast
9:36 AM 48.2 °F - 41.0 °F 76% 29.55 in 10.0 mi NE 13.8 mph 26.5 mph N/A   Overcast
9:56 AM 48.2 °F - 39.2 °F 71% 29.55 in 10.0 mi NNE 13.8 mph 21.9 mph N/A   Mostly Cloudy
10:16 AM 48.2 °F - 41.0 °F 76% 29.55 in 10.0 mi NNE 11.5 mph 21.9 mph N/A   Overcast
10:36 AM 48.2 °F - 41.0 °F 76% 29.56 in 10.0 mi ENE 13.8 mph 20.7 mph N/A   Overcast
10:56 AM 48.2 °F - 41.0 °F 76% 29.56 in 10.0 mi ENE 23.0 mph 28.8 mph N/A   Overcast
11:16 AM 48.2 °F - 41.0 °F 76% 29.57 in 10.0 mi ENE 20.7 mph 26.5 mph N/A   Overcast
11:36 AM 48.2 °F - 42.8 °F 82% 29.57 in 10.0 mi ENE 23.0 mph 28.8 mph N/A   Overcast
11:56 AM 48.2 °F - 42.8 °F 82% 29.57 in 10.0 mi NE 17.3 mph 27.6 mph N/A   Overcast
12:16 PM 48.2 °F - 42.8 °F 82% 29.58 in 10.0 mi NE 19.6 mph 27.6 mph N/A   Overcast
12:36 PM 48.2 °F - 42.8 °F 82% 29.58 in 10.0 mi NE 15.0 mph 27.6 mph N/A   Overcast
12:56 PM 48.2 °F - 42.8 °F 82% 29.57 in 10.0 mi ENE 15.0 mph 23.0 mph N/A   Overcast
1:16 PM 48.2 °F - 42.8 °F 82% 29.57 in 10.0 mi ENE 15.0 mph 31.1 mph N/A   Overcast
1:36 PM 50.0 °F - 41.0 °F 71% 29.57 in 10.0 mi ESE 13.8 mph 23.0 mph N/A   Overcast
1:56 PM 51.8 °F - 42.8 °F 71% 29.57 in 10.0 mi East 11.5 mph 23.0 mph N/A   Overcast
2:16 PM 51.8 °F - 42.8 °F 71% 29.56 in 10.0 mi East 20.7 mph 25.3 mph N/A   Mostly Cloudy
2:36 PM 51.8 °F - 42.8 °F 71% 29.57 in 10.0 mi East 18.4 mph 23.0 mph N/A   Overcast
2:56 PM 50.0 °F - 42.8 °F 76% 29.57 in 10.0 mi East 15.0 mph - N/A   Overcast
3:16 PM 51.8 °F - 42.8 °F 71% 29.56 in 10.0 mi East 17.3 mph 21.9 mph N/A   Overcast
3:36 PM 51.8 °F - 42.8 °F 71% 29.57 in 10.0 mi East 15.0 mph - N/A   Overcast
3:56 PM 51.8 °F - 42.8 °F 71% 29.57 in 10.0 mi East 15.0 mph - N/A   Mostly Cloudy
4:16 PM 51.8 °F - 44.6 °F 76% 29.57 in 10.0 mi East 11.5 mph 18.4 mph N/A   Overcast
4:36 PM 53.6 °F - 44.6 °F 72% 29.57 in 10.0 mi ESE 11.5 mph 19.6 mph N/A   Overcast
4:56 PM 53.6 °F - 44.6 °F 72% 29.57 in 10.0 mi East 13.8 mph 25.3 mph N/A   Overcast
5:16 PM 53.6 °F - 44.6 °F 72% 29.57 in 10.0 mi East 15.0 mph 21.9 mph N/A   Mostly Cloudy
5:36 PM 51.8 °F - 44.6 °F 76% 29.58 in 10.0 mi NNE 3.5 mph 17.3 mph N/A   Mostly Cloudy
5:56 PM 51.8 °F - 46.4 °F 82% 29.59 in 9.0 mi Calm Calm - N/A   Overcast
6:16 PM 50.0 °F - 44.6 °F 82% 29.59 in 10.0 mi SE 5.8 mph - N/A   Overcast
6:36 PM 50.0 °F - 44.6 °F 82% 29.59 in 10.0 mi SE 11.5 mph - N/A   Overcast
6:56 PM 50.0 °F - 44.6 °F 82% 29.59 in 10.0 mi ENE 4.6 mph - N/A   Overcast
7:16 PM 48.2 °F - 44.6 °F 87% 29.60 in 10.0 mi SSE 8.1 mph - N/A   Overcast
7:36 PM 48.2 °F - 44.6 °F 87% 29.60 in 10.0 mi ENE 3.5 mph - N/A   Overcast
7:56 PM 50.0 °F - 44.6 °F 82% 29.62 in 10.0 mi Calm Calm - N/A   Overcast
8:16 PM 50.0 °F - 44.6 °F 82% 29.61 in 10.0 mi NE 4.6 mph 18.4 mph N/A   Overcast
8:36 PM 48.2 °F - 44.6 °F 87% 29.62 in 10.0 mi SE 10.4 mph 16.1 mph N/A   Overcast
8:56 PM 48.2 °F - 44.6 °F 87% 29.62 in 10.0 mi Calm Calm - N/A   Overcast
9:16 PM 48.2 °F - 42.8 °F 82% 29.62 in 10.0 mi SE 5.8 mph - N/A   Overcast
9:36 PM 48.2 °F - 42.8 °F 82% 29.63 in 10.0 mi South 8.1 mph - N/A   Overcast
9:56 PM 46.4 °F 44.3 °F 44.6 °F 93% 29.63 in 10.0 mi SE 4.6 mph - N/A   Overcast
10:16 PM 48.2 °F - 42.8 °F 82% 29.64 in 10.0 mi ESE 4.6 mph - N/A   Overcast
10:36 PM 48.2 °F - 42.8 °F 82% 29.64 in 10.0 mi SSE 8.1 mph - N/A   Overcast
10:56 PM 48.2 °F - 44.6 °F 87% 29.64 in 10.0 mi ESE 6.9 mph - N/A   Overcast
11:16 PM 46.4 °F 44.3 °F 44.6 °F 93% 29.64 in 9.0 mi South 4.6 mph - N/A   Overcast
11:36 PM 46.4 °F 40.7 °F 44.6 °F 93% 29.63 in 10.0 mi SSE 12.7 mph - N/A   Overcast
11:56 PM 48.2 °F - 44.6 °F 87% 29.63 in 9.0 mi SE 12.7 mph 17.3 mph N/A   Overcast